Time,TemperatureF,DewpointF,PressureIn,WindDirection,WindDirectionDegrees,WindSpeedMPH,WindSpeedGustMPH,Humidity,HourlyPrecipIn,Conditions,Clouds,dailyrainin,SolarRadiationWatts/m^2,SoftwareType,DateUTC
2016-02-09 00:01:00,44.7,37.9,30.12,West,275,0.0,0.0,77,0.00,,,0.00,0.00,VWS V14.00,2016-02-09 08:01:00,
2016-02-09 00:06:00,44.5,37.4,30.12,West,275,0.0,0.0,76,0.00,,,0.00,0.00,VWS V14.00,2016-02-09 08:06:00,
2016-02-09 00:11:00,44.4,37.7,30.12,West,275,0.0,0.0,77,0.00,,,0.00,0.00,VWS V14.00,2016-02-09 08:11:00,
2016-02-09 00:16:00,44.3,37.6,30.12,West,275,0.0,0.0,77,0.00,,,0.00,0.00,VWS V14.00,2016-02-09 08:16:00,
2016-02-09 00:21:00,44.2,37.5,30.12,West,275,0.0,0.0,77,0.00,,,0.00,0.00,VWS V14.00,2016-02-09 08:21:00,
2016-02-09 00:26:00,44.0,37.3,30.11,West,275,0.0,0.0,77,0.00,,,0.00,0.00,VWS V14.00,2016-02-09 08:26:00,
2016-02-09 00:30:00,43.8,37.1,30.11,West,275,0.0,0.0,77,0.00,,,0.00,0.00,VWS V14.00,2016-02-09 08:30:00,
2016-02-09 00:35:00,43.5,37.1,30.11,West,275,0.0,0.0,78,0.00,,,0.00,0.00,VWS V14.00,2016-02-09 08:35:00,
2016-02-09 00:40:00,43.4,37.0,30.11,West,275,0.0,0.0,78,0.00,,,0.00,0.00,VWS V14.00,2016-02-09 08:40:00,
2016-02-09 00:45:00,43.3,36.9,30.11,West,275,0.0,0.0,78,0.00,,,0.00,0.00,VWS V14.00,2016-02-09 08:45:00,
2016-02-09 00:50:00,43.1,36.7,30.11,West,275,0.0,0.0,78,0.00,,,0.00,0.00,VWS V14.00,2016-02-09 08:50:00,
2016-02-09 00:55:00,43.0,36.6,30.11,West,275,0.0,0.0,78,0.00,,,0.00,0.00,VWS V14.00,2016-02-09 08:55:00,
2016-02-09 01:00:00,42.8,36.4,30.11,West,275,0.0,0.0,78,0.00,,,0.00,0.00,VWS V14.00,2016-02-09 09:00:00,
2016-02-09 01:15:00,42.4,36.4,30.12,West,275,0.0,0.0,79,0.00,,,0.00,0.00,VWS V14.00,2016-02-09 09:15:00,
2016-02-09 01:20:00,42.3,36.3,30.12,West,275,0.0,0.0,79,0.00,,,0.00,0.00,VWS V14.00,2016-02-09 09:20:00,
2016-02-09 01:25:00,42.3,36.3,30.12,West,275,0.0,0.0,79,0.00,,,0.00,0.00,VWS V14.00,2016-02-09 09:25:00,
2016-02-09 01:30:00,42.2,36.2,30.12,West,275,0.0,0.0,79,0.00,,,0.00,0.00,VWS V14.00,2016-02-09 09:30:00,
2016-02-09 01:35:00,42.0,36.0,30.12,West,275,0.0,0.0,79,0.00,,,0.00,0.00,VWS V14.00,2016-02-09 09:35:00,
2016-02-09 01:40:00,41.9,35.9,30.12,West,275,0.0,0.0,79,0.00,,,0.00,0.00,VWS V14.00,2016-02-09 09:40:00,
2016-02-09 01:45:00,41.9,35.9,30.12,West,275,0.0,0.0,79,0.00,,,0.00,0.00,VWS V14.00,2016-02-09 09:45:00,
2016-02-09 01:50:00,41.8,36.1,30.11,West,275,0.0,0.0,80,0.00,,,0.00,0.00,VWS V14.00,2016-02-09 09:50:00,
2016-02-09 01:55:00,41.7,36.0,30.12,West,275,0.0,0.0,80,0.00,,,0.00,0.00,VWS V14.00,2016-02-09 09:55:00,
2016-02-09 02:00:00,41.6,35.9,30.12,West,275,0.0,0.0,80,0.00,,,0.00,0.00,VWS V14.00,2016-02-09 10:00:00,
2016-02-09 02:05:00,41.5,35.8,30.12,West,275,0.0,0.0,80,0.00,,,0.00,0.00,VWS V14.00,2016-02-09 10:05:00,
2016-02-09 02:10:00,41.3,35.6,30.12,West,275,0.0,0.0,80,0.00,,,0.00,0.00,VWS V14.00,2016-02-09 10:10:00,
2016-02-09 02:15:00,41.3,35.6,30.12,West,275,0.0,0.0,80,0.00,,,0.00,0.00,VWS V14.00,2016-02-09 10:15:00,
2016-02-09 02:20:00,41.1,35.4,30.11,West,275,0.0,0.0,80,0.00,,,0.00,0.00,VWS V14.00,2016-02-09 10:20:00,
2016-02-09 02:25:00,41.1,35.4,30.11,West,275,0.0,0.0,80,0.00,,,0.00,0.00,VWS V14.00,2016-02-09 10:25:00,
2016-02-09 02:30:00,40.9,35.5,30.11,West,275,0.0,0.0,81,0.00,,,0.00,0.00,VWS V14.00,2016-02-09 10:30:00,
2016-02-09 02:40:00,40.8,35.4,30.11,West,275,0.0,0.0,81,0.00,,,0.00,0.00,VWS V14.00,2016-02-09 10:40:00,
2016-02-09 02:45:00,40.7,35.3,30.11,West,275,0.0,0.0,81,0.00,,,0.00,0.00,VWS V14.00,2016-02-09 10:45:00,
2016-02-09 02:50:00,40.6,35.2,30.11,West,275,0.0,0.0,81,0.00,,,0.00,0.00,VWS V14.00,2016-02-09 10:50:00,
2016-02-09 02:55:00,40.5,35.1,30.11,West,275,0.0,0.0,81,0.00,,,0.00,0.00,VWS V14.00,2016-02-09 10:55:00,
2016-02-09 03:00:00,40.4,35.0,30.11,West,275,0.0,0.0,81,0.00,,,0.00,0.00,VWS V14.00,2016-02-09 11:00:00,
2016-02-09 03:05:00,40.4,35.0,30.11,West,275,0.0,0.0,81,0.00,,,0.00,0.00,VWS V14.00,2016-02-09 11:05:00,
2016-02-09 03:15:00,40.3,34.9,30.11,West,275,0.0,0.0,81,0.00,,,0.00,0.00,VWS V14.00,2016-02-09 11:15:00,
2016-02-09 03:20:00,40.3,34.9,30.11,West,275,0.0,0.0,81,0.00,,,0.00,0.00,VWS V14.00,2016-02-09 11:20:00,
2016-02-09 03:25:00,40.3,34.9,30.11,West,275,0.0,0.0,81,0.00,,,0.00,0.00,VWS V14.00,2016-02-09 11:25:00,